AirNav   TITAN Aviation Fuels
 
 1461 users online  

10G Holmes County Airport
Millersburg, Ohio, USA

GOING TO MILLERSBURG?


FAA INFORMATION EFFECTIVE 15 JULY 2021

Location

FAA Identifier: 10G
Lat/Long: 40-32-12.1245N 081-57-21.3882W
40-32.202075N 081-57.356470W
40.5367013,-81.9559412
(estimated)
Elevation: 1226.5 ft. / 373.8 m (surveyed)
Variation: 08W (2015)
From city: 2 miles SW of MILLERSBURG, OH
Time zone: UTC -4 (UTC -5 during Standard Time)
Zip code: 44654

Airport Operations

Airport use: Open to the public
Activation date: 03/1962
Control tower: no
ARTCC: INDIANAPOLIS CENTER
FSS: CLEVELAND FLIGHT SERVICE STATION
NOTAMs facility: CLE (NOTAM-D service available)
Attendance: MON-FRI 0800-1900, ALL SAT 1000-1800, ALL SUN 1230-1700
Wind indicator: lighted
Segmented circle: no
Lights: ACTVT MIRL RY 09/27, PAPI RY 27 AND REIL RYS 09 & 27 - 123.4.
Beacon: white-green (lighted land airport)
Operates sunset to sunrise.

Airport Communications

CTAF/UNICOM: 123.0
WX AWOS-3: 128.325 (330-674-6279)
WX AWOS-3 at I40 (14 nm S): 118.875 (740-295-7370)
  • APCH/DEP SVC PRVDD BY INDIANAPOLIS ARTCC ON FREQS 124.45/370.9 (ZANESVILLE RCAG).

Nearby radio navigation aids

VOR radial/distance  VOR name  Freq  Var
BSVr247/26.8BRIGGS VOR/DME112.4004W
MFDr128/35.1MANSFIELD VORTAC108.8003W
ZZVr001/35.9ZANESVILLE VOR/DME114.9506W
APEr057/37.0APPLETON VORTAC116.7006W

Airport Services

Fuel available: 100LL JET-A+
Parking: hangars and tiedowns
Airframe service: MAJOR
Powerplant service: MAJOR
Bottled oxygen: HIGH
Bulk oxygen: NONE

Runway Information

Runway 9/27

Dimensions: 4400 x 75 ft. / 1341 x 23 m
Surface: asphalt, in good condition
Weight bearing capacity: 
Single wheel: 14.0
Double wheel: 25.0
Runway edge lights: medium intensity
RUNWAY 9  RUNWAY 27
Latitude: 40-32.182148N40-32.222002N
Longitude: 081-57.830652W081-56.882287W
Elevation: 1226.5 ft.1183.2 ft.
Traffic pattern: leftleft
Runway heading: 095 magnetic, 087 true275 magnetic, 267 true
Markings: nonprecision, in good conditionnonprecision, in good condition
Visual slope indicator: 2-light PAPI on left (3.00 degrees glide path)
Runway end identifier lights: yesyes
Touchdown point: yes, no lightsyes, no lights
Obstructions: 80 ft. bldg, 1550 ft. from runway, 420 ft. right of centerline, 16:1 slope to clearnone

Airport Ownership and Management from official FAA records

Ownership: Publicly-owned
Owner: HOLMES CO ARPT AUTH
10 SOUTH CLAY ST
MILLERSBURG, OH 44654
Phone (330) 674-0674
Manager: LARRY CLARK
4501 TWP RD 307
MILLERSBURG, OH 44654
Phone 330-674-0674
AMGR CELL: 330-231-3715

Airport Operational Statistics

Aircraft based on the field: 13
Single engine airplanes: 12
Jet airplanes: 1
    
Aircraft operations: avg 59/day *
70% local general aviation
23% transient general aviation
5% military
2% air taxi
* for 12-month period ending 16 September 2019

Additional Remarks

DEER ON & INVOF ARPT.
FOR CD CTC INDIANAPOLIS ARTCC AT 317-247-2411.

Instrument Procedures

NOTE: All procedures below are presented as PDF files. If you need a reader for these files, you should download the free Adobe Reader.

NOT FOR NAVIGATION. Please procure official charts for flight.
FAA instrument procedures published for use from 15 July 2021 at 0901Z to 12 August 2021 at 0900z.

 
IAPs - Instrument Approach Procedures
RNAV (GPS) RWY 09   download (198KB)
RNAV (GPS) RWY 27   download (206KB)
NOTE: Special Take-Off Minimums/Departure Procedures apply   download (234KB)

Other nearby airports with instrument procedures:

I40 - Richard Downing Airport (14 nm S)
KBJJ - Wayne County Airport (21 nm N)
KPHD - Harry Clever Field Airport (25 nm E)
3G4 - Ashland County Airport (26 nm NW)
4I3 - Knox County Airport (29 nm SW)
 
Loc | Ops | Rwys | IFR | FBO | Links
Com | Nav | Svcs | Stats | Notes
Area around 10G (Holmes County Airport)
 
Road maps at: MapQuest Bing Google
 
Aerial photo
WARNING: Photo may not be current or correct
Aerial photo of 10G (Holmes County Airport)
Do you have a better or more recent aerial photo of Holmes County Airport that you would like to share? If so, please send us your photo.

 
Sectional chart

 
Airport distance calculator
Flying to Holmes County Airport? Find the distance to fly.

From to 10G

Sunrise and sunset
Times for 26-Jul-2021
 Local
(UTC-4)
 Zulu
(UTC)
Morning civil twilight05:4909:49
Sunrise06:2010:20
Sunset20:4800:48
Evening civil twilight21:2001:20

Current date and time
Zulu (UTC)  26-Jul-2021 21:06:27
Local (UTC-4)  26-Jul-2021 17:06:27
 
METAR
KBJJ 
20nm N 
262056Z AUTO 32009KT 10SM CLR 29/14 A3003 RMK AO2 SLP161 T02890139 53000
KPHD 
25nm E 
262053Z AUTO 30010G16KT 10SM CLR 30/14 A3001 RMK AO2 SLP154 T03000144 55002
K4I3 
29nm SW 
262055Z AUTO 32005KT 10SM CLR 29/15 A3004 RMK AO2
KMFD 
31nm NW 
262052Z 34008KT 10SM SCT060 29/16 A3004 RMK AO2 SLP162 T02940156 56001
KCAK 
32nm NE 
262051Z 31012G18KT 10SM FEW250 31/13 A3002 RMK AO2 SLP154 T03060128 55000
KZZV 
35nm S 
262053Z AUTO 34006G14KT 10SM CLR 31/13 A3000 RMK AO2 SLP149 T03110133 57004
KAKR 
37nm NE 
262054Z AUTO 33012KT 10SM CLR 31/12 A3001 RMK AO2 SLP154 T03060122 53002
KCDI 
38nm SE 
262055Z AUTO 35007KT 10SM CLR 31/14 A2999 RMK AO2 T03090142
KVTA 
39nm SW 
262054Z AUTO 02008KT 10SM CLR 32/13 A3000 RMK AO2 SLP149 T03170133 58003
TAF
KMFD 
31nm NW 
261720Z 2618/2718 33007KT P6SM FEW050 FM270300 VRB03KT P6SM SKC
KCAK 
32nm NE 
261720Z 2618/2718 30007KT P6SM FEW050 FM270300 00000KT P6SM SKC
KZZV 
35nm S 
261720Z 2618/2718 34005KT P6SM SCT050
NOTAMs
Click for the latest NOTAMs
NOTAMs are issued by the DoD/FAA and will open in a separate window not controlled by AirNav.

 

 
 

FBO, Fuel Providers, and Aircraft Ground Support

  
 Business Name 
 
 Contact 
 
 Services / Description 
 
Fuel Prices
 
Comments
  
Professionals Aviation Company Inc. 330-674-0674
no information available

If you are affiliated with Professionals Aviation Company Inc. and would like to show here your services, contact info, web link, logo, and more, click here
100LL Jet A
FS $5.10 $4.10 
 Updated 20-Jul-2021
 
   5 read write
FS=Full service
Update Fuel Prices
 

Would you like to see your business listed on this page?

 If your business provides an interesting product or service to pilots, flight crews, aircraft, or users of the Holmes County Airport, you should consider listing it here.  To start the listing process, click on the button below
 
Add a business
 

Other Pages about Holmes County Airport

Update a link
 
Copyright © AirNav, LLC. All rights reserved. Privacy Policy  Contact